{"data":{"norad_id":66759,"epoch":"2026-05-25T04:23:05.663616Z","epoch_age_seconds":59583,"freshness":"FRESH","line1":"1 66759U 25276CX  26145.18270444  .00005763  00000+0  26583-3 0  9990","line2":"2 66759  97.4172 219.2924 0002246  65.1609 294.9860 15.20625702 26944","mean_motion":15.20625702,"eccentricity":0.0002246,"inclination_deg":97.4172,"raan_deg":219.2924,"arg_perigee_deg":65.1609,"mean_anomaly_deg":294.986,"bstar":0.00026583,"rev_number":2694,"period_min":94.697860104958,"perigee_km":502.40636954814,"apogee_km":505.49780396591,"semimajor_km":6882.089086757,"source":"CELESTRAK","updated_at":"2026-05-25T13:38:06.454146Z"}}